Regional Weather Roundup
Issued by NWS

Home | Current Version | Previous Version | Graphics & Text | Print | Product List | Glossary On
Versions: 1 2 3 4 5 6 7 8 9 10 11 12 13 14 15 16 17 18 19 20 21 22 23 24 25 26 27 28 29 30 31 32 33 34 35 36 37 38 39 40 41 42 43 44 45 46 47 48 49 50
000
ASUS44 KMEG 231610
RWRTN
TENNESSEE HOURLY STATE WEATHER ROUNDUP
NATIONAL WEATHER SERVICE MEMPHIS TN
1100 AM CDT FRI JUN 23 2017

TNZ002-004-019-021-049-052-054-088>092-231700-
WEST TENNESSEE

CITY           SKY/WX    TMP DP  RH WIND       PRES   REMARKS
MEMPHIS INTL   CLOUDY    75  74  96 SW16G24   29.74R
NWS MEMPHIS      N/A     74 N/A N/A MISG        N/A
JACKSON        LGT RAIN  76  74  93 SW15G36   29.67S FOG
SOMERVILLE     CLOUDY    75  73  94 SW20G37   29.71R FOG
COVINGTON      FOG       75  73  94 SW17      29.67R VSB 3/4
UNION CITY     PTSUNNY   73  73 100 SE7       29.62F FOG
BOLIVAR        PTSUNNY   75  73  94 S16G28    29.71R FOG
PARIS          FOG       73  73 100 SE10G16   29.66F VSB 1
HUNTINGDON     PTSUNNY   75  73  94 S17G26    29.66F FOG
LEXINGTON      PTSUNNY   75  73  94 S14G23    29.70F FOG
SELMER         PTSUNNY   75  73  94 S12G28    29.72F FOG
SAVANNAH       CLOUDY    79  73  83 S21G33    29.73F
$$

TNZ008-025-027-028-033-062-065-066-231700-
NORTH MIDDLE TENNESSEE

CITY           SKY/WX    TMP DP  RH WIND       PRES   REMARKS
NASHVILLE      CLOUDY    86  32  14 S16G31    29.80F
PORTLAND       PTSUNNY   82  72  69 S13G23    29.79F
CLARKSVILLE    CLOUDY    80  70  71 S13       29.74F
SMYRNA         CLOUDY    84  73  69 S14G22    29.80F HX  90
COOKEVILLE     PTSUNNY   77  73  88 SW9G15    29.87F
GALLATIN       PTSUNNY   82  72  69 S9G23     29.82F
CROSSVILLE     CLOUDY    75  69  81 MISG      29.95F
$$

TNZ061-075-076-078-094-096-097-231700-
SOUTH MIDDLE TENNESSEE

CITY           SKY/WX    TMP DP  RH WIND       PRES   REMARKS
FAYETTEVILLE   CLOUDY    79  73  83 S12G24    29.87F
TULLAHOMA      PTSUNNY   75  72  88 S14       29.89S
WINCHESTER     PTSUNNY   81  72  74 S17         N/A
MCMINNVILLE    PTSUNNY   79  79 100 VRB7      29.88F
COLUMBIA       CLOUDY    79  73  83 S21       29.77F HAZE
SHELBYVILLE    CLOUDY    77  73  88 S21G28    29.85F
$$

TNZ017-018-042-046-047-231700-
NORTHEAST TENNESSEE

CITY           SKY/WX    TMP DP  RH WIND       PRES   REMARKS
TRI CITIES     CLOUDY    78  71  79 W8        29.97S
ELIZABETHTON   CLOUDY    81  68  65 VRB5      29.97F
$$

TNZ012-013-036-069-073-074-231700-
CENTRAL EAST TENNESSEE

CITY           SKY/WX    TMP DP  RH WIND       PRES   REMARKS
KNOXVILLE      CLOUDY    82  68  62 SW23G33   29.92F
OAK RIDGE      CLOUDY    79  71  76 SW8       29.94F
DOWNTOWN KNOXV SUNNY     81  73  78 W7        29.91F
GATLINBURG     SUNNY     84  66  54 VRB5      29.92F
MORRISTOWN     PTSUNNY   77  70  78 W8        29.94F
JACKSBORO      PTSUNNY   77  72  83 S12       29.96F
$$

TNZ083-085-099-231700-
SOUTHEAST TENNESSEE

CITY           SKY/WX    TMP DP  RH WIND       PRES   REMARKS
CHATTANOOGA    PTSUNNY   84  71  65 S20G28    29.92F
$$

SKY/WX REPORTED AS FAIR MEANS FEW OR NO CLOUDS BELOW
12 THOUSAND FEET.





USA.gov is the U.S. government's official web portal to all federal, state and local government web resources and services.